QPF
0.09 0.16 0.23 0.28 0.22 0.18 0.18 0.15 0.17 0.16 0.12 0.09 0.10 0.12 0.13 0.11 0.07 0.05 0.04 0.03 0.03 0.03 0.03 0.03 0.04 0.03 0.02 0.02 0.01 0.01 0.01 0.02 0.02 0.01 0.01 0.01 0.01 0.02 0.02 0.02 0.04 0.05 0.06
0.08 0.14 0.21 0.24 0.20 0.15 0.16 0.13 0.13 0.13 0.11 0.09 0.09 0.10 0.10 0.08 0.06 0.06 0.05 0.04 0.03 0.03 0.04 0.04 0.04 0.02 0.01 0.01 0.01 0.01 0.01 0.01 0.01 0.01 0.01 0.02 0.03 0.03 0.03 0.04 0.04 0.07 0.10
0.10 0.16 0.21 0.22 0.21 0.17 0.16 0.15 0.12 0.11 0.11 0.09 0.08 0.08 0.07 0.05 0.06 0.07 0.06 0.04 0.03 0.04 0.04 0.04 0.03 0.03 0.02 0.01 0.01 0.02 0.02 0.01 0.01 0.01 0.01 0.03 0.03 0.04 0.04 0.05 0.05 0.07 0.08
0.07 0.12 0.16 0.21 0.19 0.15 0.14 0.11 0.10 0.10 0.10 0.10 0.08 0.07 0.06 0.06 0.07 0.08 0.07 0.05 0.04 0.05 0.03 0.02 0.02 0.02 0.02 0.01 0.01 0.02 0.03 0.03 0.01 0.01 0.01 0.03 0.03 0.04 0.06 0.06 0.06 0.07 0.08
0.06 0.07 0.11 0.16 0.15 0.16 0.14 0.10 0.09 0.07 0.08 0.09 0.08 0.07 0.07 0.08 0.08 0.09 0.06 0.05 0.05 0.04 0.03 0.02 0.02 0.02 0.02 0.01 0.02 0.03 0.03 0.03 0.02 0.01 0.02 0.04 0.05 0.06 0.07 0.06 0.06 0.07 0.06
0.04 0.07 0.11 0.14 0.14 0.12 0.09 0.07 0.06 0.06 0.07 0.09 0.08 0.06 0.07 0.06 0.07 0.06 0.04 0.03 0.03 0.03 0.04 0.03 0.02 0.02 0.02 0.02 0.03 0.02 0.02 0.02 0.01 0.02 0.04 0.04 0.05 0.09 0.07 0.04 0.05 0.05 0.05
0.03 0.06 0.10 0.11 0.10 0.08 0.08 0.09 0.09 0.09 0.08 0.07 0.06 0.06 0.05 0.05 0.04 0.03 0.02 0.02 0.02 0.03 0.03 0.03 0.02 0.02 0.02 0.02 0.02 0.02 0.02 0.02 0.02 0.03 0.04 0.03 0.05 0.09 0.06 0.03 0.03 0.04 0.04
0.03 0.05 0.07 0.06 0.06 0.05 0.07 0.18 0.20 0.09 0.04 0.04 0.03 0.03 0.03 0.03 0.02 0.02 0.03 0.02 0.03 0.03 0.02 0.02 0.02 0.02 0.01 0.01 0.02 0.02 0.03 0.03 0.02 0.03 0.03 0.03 0.07 0.09 0.06 0.05 0.04 0.04 0.05
0.04 0.05 0.05 0.04 0.04 0.03 0.03 0.05 0.08 0.05 0.06 0.04 0.02 0.02 0.01 0.01 0.01 0.01 0.01 0.02 0.03 0.03 0.02 0.01 0.02 0.02 0.02 0.01 0.02 0.03 0.04 0.04 0.02 0.02 0.02 0.03 0.04 0.04 0.04 0.04 0.05 0.04 0.04
0.04 0.04 0.03 0.03 0.03 0.02 0.02 0.01 0.02 0.03 0.04 0.03 0.02 0.02 0.01 0.01 0.01 0.01 0.02 0.02 0.02 0.02 0.01 0.01 0.01 0.02 0.01 0.01 0.02 0.02 0.02 0.01 0.01 0.01 0.02 0.03 0.04 0.04 0.03 0.03 0.04 0.05 0.04
0.04 0.04 0.03 0.01 0.01 0.01 0.01 0.00 0.00 0.01 0.01 0.01 0.01 0.01 0.01 0.00 0.00 0.01 0.02 0.02 0.01 0.02 0.02 0.02 0.02 0.01 0.01 0.01 0.02 0.01 0.00 0.00 0.01 0.01 0.02 0.02 0.03 0.04 0.04 0.03 0.03 0.04 0.04
0.02 0.03 0.03 0.01 0.00 0.01 0.01 0.00 0.00 0.00 0.00 0.00 0.00 0.00 0.00 0.00 0.00 0.00 0.01 0.01 0.01 0.01 0.01 0.01 0.01 0.00 0.00 0.00 0.01 0.00 0.00 0.00 0.01 0.01 0.02 0.02 0.03 0.03 0.03 0.03 0.03 0.04 0.05
0.04 0.03 0.02 0.02 0.01 0.01 0.01 0.01 0.00 0.00 0.00 0.00 0.00 0.00 0.00 0.00 0.00 0.00 0.00 0.00 0.00 0.00 0.00 0.00 0.00 0.00 0.00 0.00 0.01 0.00 0.00 0.01 0.01 0.02 0.03 0.04 0.04 0.03 0.04 0.04 0.03 0.04 0.04
0.04 0.05 0.03 0.02 0.02 0.01 0.01 0.01 0.00 0.00 0.00 0.00 0.00 0.00 0.00 0.00 0.00 0.00 0.00 0.00 0.00 0.00 0.00 0.01 0.01 0.00 0.00 0.00 0.00 0.00 0.01 0.01 0.01 0.03 0.05 0.05 0.05 0.05 0.05 0.04 0.03 0.04 0.04
0.04 0.04 0.04 0.02 0.01 0.01 0.01 0.01 0.00 0.00 0.00 0.00 0.00 0.00 0.00 0.00 0.00 0.00 0.00 0.00 0.00 0.00 0.00 0.00 0.00 0.00 0.00 0.00 0.00 0.00 0.00 0.01 0.03 0.04 0.04 0.03 0.04 0.05 0.06 0.06 0.05 0.05 0.06
0.04 0.04 0.03 0.01 0.01 0.01 0.01 0.01 0.00 0.00 0.00 0.00 0.00 0.00 0.00 0.00 0.00 0.00 0.00 0.00 0.00 0.00 0.00 0.00 0.00 0.00 0.01 0.01 0.01 0.00 0.00 0.00 0.02 0.03 0.04 0.04 0.03 0.03 0.04 0.05 0.05 0.06 0.07
0.01 0.01 0.01 0.00 0.00 0.01 0.01 0.01 0.00 0.00 0.00 0.00 0.00 0.00 0.00 0.00 0.00 0.00 0.00 0.00 0.00 0.00 0.00 0.00 0.01 0.01 0.01 0.01 0.02 0.01 0.01 0.00 0.01 0.02 0.02 0.03 0.03 0.03 0.03 0.05 0.07 0.08 0.10
0.01 0.00 0.00 0.00 0.00 0.00 0.00 0.01 0.01 0.00 0.00 0.00 0.00 0.00 0.00 0.00 0.00 0.00 0.00 0.00 0.00 0.00 0.00 0.01 0.01 0.01 0.01 0.01 0.02 0.02 0.01 0.02 0.01 0.01 0.01 0.01 0.02 0.02 0.03 0.04 0.05 0.08 0.08
0.01 0.00 0.00 0.00 0.00 0.00 0.00 0.01 0.01 0.00 0.00 0.00 0.00 0.00 0.00 0.00 0.00 0.00 0.00 0.00 0.00 0.00 0.01 0.00 0.01 0.01 0.02 0.02 0.02 0.02 0.02 0.03 0.02 0.01 0.01 0.01 0.01 0.02 0.02 0.02 0.03 0.05 0.06
0.03 0.01 0.00 0.00 0.00 0.00 0.00 0.00 0.01 0.01 0.00 0.00 0.00 0.00 0.00 0.00 0.00 0.00 0.00 0.00 0.00 0.00 0.01 0.00 0.01 0.01 0.01 0.02 0.01 0.01 0.01 0.01 0.02 0.01 0.01 0.01 0.01 0.01 0.01 0.01 0.02 0.02 0.03
0.02 0.01 0.00 0.00 0.00 0.00 0.00 0.00 0.00 0.00 0.00 0.00 0.00 0.00 0.00 0.00 0.00 0.00 0.00 0.00 0.00 0.00 0.00 0.00 0.00 0.00 0.00 0.01 0.02 0.02 0.02 0.01 0.02 0.02 0.02 0.02 0.01 0.01 0.02 0.02 0.03 0.03 0.03
0.01 0.02 0.00 0.00 0.00 0.00 0.00 0.00 0.00 0.00 0.00 0.00 0.00 0.00 0.00 0.00 0.00 0.00 0.00 0.00 0.00 0.00 0.00 0.00 0.00 0.00 0.00 0.00 0.01 0.02 0.03 0.02 0.02 0.02 0.02 0.02 0.02 0.02 0.03 0.03 0.03 0.02 0.02
0.01 0.01 0.00 0.00 0.00 0.00 0.00 0.00 0.00 0.00 0.00 0.00 0.00 0.00 0.00 0.00 0.00 0.00 0.00 0.00 0.00 0.00 0.00 0.00 0.00 0.00 0.00 0.00 0.00 0.01 0.02 0.02 0.01 0.02 0.02 0.02 0.02 0.03 0.03 0.03 0.02 0.03 0.02
0.01 0.01 0.00 0.00 0.00 0.00 0.00 0.00 0.00 0.00 0.00 0.00 0.00 0.00 0.00 0.00 0.00 0.00 0.00 0.00 0.00 0.00 0.00 0.00 0.00 0.00 0.01 0.01 0.00 0.00 0.01 0.01 0.02 0.02 0.02 0.02 0.02 0.03 0.03 0.03 0.02 0.03 0.03
0.01 0.01 0.01 0.00 0.00 0.00 0.00 0.00 0.00 0.00 0.00 0.00 0.00 0.00 0.00 0.00 0.00 0.00 0.00 0.00 0.00 0.00 0.00 0.00 0.00 0.01 0.01 0.01 0.01 0.01 0.01 0.01 0.01 0.02 0.03 0.03 0.03 0.03 0.03 0.03 0.03 0.04 0.03
0.01 0.01 0.01 0.00 0.00 0.00 0.00 0.00 0.00 0.00 0.00 0.00 0.00 0.00 0.00 0.00 0.00 0.00 0.00 0.00 0.00 0.00 0.00 0.00 0.00 0.01 0.00 0.01 0.00 0.01 0.02 0.02 0.03 0.03 0.03 0.04 0.03 0.03 0.04 0.03 0.02 0.02 0.02
MSLP
1015.45 1015.22 1015.12 1015.12 1015.20 1015.32 1015.44 1015.52 1015.57 1015.58 1015.57 1015.56 1015.56 1015.60 1015.66 1015.75 1015.84 1015.92 1015.96 1015.96 1015.91 1015.84 1015.76 1015.68 1015.62 1015.58 1015.56 1015.54 1015.50 1015.44 1015.35 1015.23 1015.09 1014.96 1014.86 1014.80 1014.79 1014.81 1014.84 1014.86 1014.85 1014.79 1014.68
1015.78 1015.54 1015.44 1015.46 1015.57 1015.72 1015.87 1015.98 1016.04 1016.04 1016.01 1015.97 1015.96 1015.98 1016.04 1016.12 1016.21 1016.28 1016.31 1016.30 1016.24 1016.15 1016.06 1015.98 1015.93 1015.90 1015.87 1015.85 1015.80 1015.71 1015.58 1015.42 1015.26 1015.11 1015.01 1014.96 1014.96 1015.00 1015.05 1015.09 1015.08 1015.01 1014.89
1016.15 1015.88 1015.77 1015.80 1015.94 1016.12 1016.30 1016.43 1016.50 1016.50 1016.46 1016.41 1016.38 1016.38 1016.43 1016.50 1016.57 1016.62 1016.63 1016.59 1016.52 1016.42 1016.33 1016.26 1016.22 1016.20 1016.19 1016.16 1016.09 1015.97 1015.81 1015.62 1015.42 1015.25 1015.13 1015.09 1015.10 1015.15 1015.22 1015.27 1015.27 1015.22 1015.10
1016.52 1016.24 1016.11 1016.15 1016.30 1016.50 1016.70 1016.85 1016.92 1016.93 1016.88 1016.83 1016.78 1016.78 1016.80 1016.86 1016.90 1016.93 1016.91 1016.85 1016.76 1016.66 1016.57 1016.51 1016.49 1016.49 1016.49 1016.46 1016.38 1016.24 1016.05 1015.82 1015.58 1015.39 1015.26 1015.21 1015.22 1015.29 1015.37 1015.43 1015.45 1015.41 1015.33
1016.89 1016.59 1016.46 1016.49 1016.65 1016.86 1017.06 1017.22 1017.29 1017.30 1017.25 1017.19 1017.14 1017.13 1017.14 1017.17 1017.20 1017.20 1017.15 1017.07 1016.96 1016.86 1016.77 1016.73 1016.73 1016.75 1016.76 1016.74 1016.65 1016.49 1016.27 1016.01 1015.76 1015.54 1015.39 1015.33 1015.35 1015.42 1015.51 1015.59 1015.63 1015.63 1015.58
1017.22 1016.92 1016.79 1016.83 1016.98 1017.19 1017.39 1017.53 1017.60 1017.60 1017.54 1017.48 1017.43 1017.41 1017.42 1017.44 1017.44 1017.42 1017.35 1017.25 1017.13 1017.02 1016.95 1016.92 1016.93 1016.97 1016.99 1016.97 1016.88 1016.71 1016.47 1016.19 1015.92 1015.69 1015.54 1015.48 1015.50 1015.58 1015.68 1015.78 1015.84 1015.87 1015.85
1017.50 1017.23 1017.11 1017.15 1017.30 1017.49 1017.67 1017.79 1017.84 1017.82 1017.75 1017.68 1017.63 1017.61 1017.62 1017.63 1017.63 1017.59 1017.51 1017.39 1017.26 1017.15 1017.08 1017.05 1017.07 1017.11 1017.14 1017.12 1017.02 1016.84 1016.59 1016.31 1016.04 1015.82 1015.68 1015.63 1015.66 1015.76 1015.88 1015.99 1016.08 1016.12 1016.14
1017.74 1017.50 1017.40 1017.45 1017.59 1017.76 1017.91 1018.00 1018.01 1017.97 1017.89 1017.81 1017.75 1017.73 1017.74 1017.75 1017.74 1017.70 1017.61 1017.48 1017.34 1017.23 1017.15 1017.12 1017.13 1017.17 1017.18 1017.15 1017.04 1016.86 1016.61 1016.34 1016.09 1015.90 1015.79 1015.77 1015.83 1015.95 1016.09 1016.22 1016.32 1016.38 1016.41
1017.93 1017.73 1017.67 1017.73 1017.86 1018.00 1018.12 1018.17 1018.15 1018.07 1017.97 1017.88 1017.82 1017.80 1017.80 1017.81 1017.80 1017.74 1017.64 1017.51 1017.37 1017.24 1017.15 1017.10 1017.10 1017.11 1017.10 1017.04 1016.92 1016.74 1016.51 1016.26 1016.04 1015.90 1015.84 1015.87 1015.97 1016.13 1016.29 1016.44 1016.55 1016.61 1016.65
1018.08 1017.94 1017.91 1017.98 1018.10 1018.23 1018.30 1018.32 1018.26 1018.16 1018.04 1017.93 1017.86 1017.83 1017.82 1017.82 1017.80 1017.73 1017.62 1017.48 1017.33 1017.18 1017.07 1017.00 1016.97 1016.94 1016.90 1016.81 1016.67 1016.49 1016.27 1016.06 1015.90 1015.81 1015.81 1015.90 1016.06 1016.25 1016.45 1016.62 1016.73 1016.80 1016.83
1018.22 1018.12 1018.13 1018.21 1018.33 1018.43 1018.48 1018.47 1018.39 1018.26 1018.13 1018.00 1017.91 1017.86 1017.83 1017.81 1017.77 1017.68 1017.56 1017.40 1017.24 1017.08 1016.94 1016.84 1016.76 1016.69 1016.61 1016.49 1016.33 1016.14 1015.94 1015.77 1015.66 1015.64 1015.71 1015.86 1016.08 1016.32 1016.54 1016.72 1016.85 1016.91 1016.93
1018.33 1018.28 1018.31 1018.41 1018.53 1018.62 1018.66 1018.64 1018.55 1018.41 1018.26 1018.12 1018.01 1017.93 1017.87 1017.81 1017.73 1017.62 1017.48 1017.30 1017.12 1016.94 1016.78 1016.64 1016.52 1016.40 1016.27 1016.12 1015.94 1015.74 1015.57 1015.43 1015.37 1015.41 1015.54 1015.75 1016.02 1016.30 1016.55 1016.75 1016.89 1016.96 1016.97
1018.44 1018.42 1018.47 1018.58 1018.70 1018.80 1018.85 1018.84 1018.75 1018.62 1018.47 1018.32 1018.18 1018.06 1017.95 1017.85 1017.72 1017.58 1017.41 1017.21 1017.01 1016.81 1016.62 1016.45 1016.29 1016.13 1015.95 1015.76 1015.56 1015.36 1015.20 1015.10 1015.08 1015.16 1015.34 1015.60 1015.90 1016.20 1016.48 1016.70 1016.85 1016.93 1016.96
1018.53 1018.53 1018.61 1018.73 1018.87 1018.99 1019.06 1019.06 1019.01 1018.90 1018.75 1018.59 1018.42 1018.26 1018.11 1017.95 1017.78 1017.59 1017.38 1017.17 1016.94 1016.73 1016.52 1016.31 1016.12 1015.92 1015.70 1015.48 1015.26 1015.06 1014.91 1014.82 1014.83 1014.94 1015.14 1015.42 1015.74 1016.06 1016.35 1016.58 1016.74 1016.84 1016.90
1018.61 1018.64 1018.73 1018.87 1019.03 1019.17 1019.28 1019.33 1019.31 1019.23 1019.10 1018.93 1018.74 1018.54 1018.34 1018.13 1017.91 1017.68 1017.44 1017.20 1016.96 1016.72 1016.49 1016.27 1016.04 1015.81 1015.57 1015.32 1015.09 1014.88 1014.73 1014.66 1014.67 1014.79 1014.99 1015.26 1015.57 1015.89 1016.18 1016.42 1016.60 1016.73 1016.81
1018.71 1018.76 1018.86 1019.02 1019.20 1019.38 1019.52 1019.62 1019.64 1019.59 1019.48 1019.32 1019.12 1018.89 1018.64 1018.38 1018.12 1017.85 1017.59 1017.33 1017.07 1016.82 1016.57 1016.33 1016.08 1015.82 1015.56 1015.30 1015.06 1014.86 1014.71 1014.63 1014.64 1014.74 1014.92 1015.16 1015.44 1015.73 1016.01 1016.25 1016.45 1016.60 1016.73
1018.85 1018.91 1019.04 1019.21 1019.41 1019.61 1019.79 1019.92 1019.98 1019.97 1019.88 1019.72 1019.51 1019.26 1018.99 1018.70 1018.41 1018.12 1017.83 1017.56 1017.29 1017.02 1016.76 1016.50 1016.23 1015.96 1015.69 1015.43 1015.19 1014.98 1014.83 1014.74 1014.73 1014.80 1014.94 1015.13 1015.37 1015.62 1015.87 1016.11 1016.32 1016.50 1016.66
1019.05 1019.13 1019.27 1019.45 1019.66 1019.87 1020.07 1020.22 1020.31 1020.33 1020.26 1020.11 1019.90 1019.64 1019.35 1019.05 1018.75 1018.45 1018.16 1017.87 1017.60 1017.32 1017.04 1016.77 1016.48 1016.20 1015.93 1015.67 1015.44 1015.24 1015.09 1015.00 1014.96 1014.98 1015.07 1015.20 1015.38 1015.58 1015.80 1016.03 1016.24 1016.45 1016.63
1019.32 1019.42 1019.56 1019.74 1019.94 1020.16 1020.36 1020.52 1020.62 1020.65 1020.59 1020.45 1020.25 1020.00 1019.71 1019.42 1019.12 1018.82 1018.54 1018.25 1017.97 1017.69 1017.40 1017.11 1016.82 1016.54 1016.27 1016.03 1015.81 1015.63 1015.48 1015.37 1015.31 1015.29 1015.31 1015.38 1015.49 1015.64 1015.83 1016.03 1016.25 1016.46 1016.65
1019.66 1019.78 1019.92 1020.08 1020.26 1020.45 1020.64 1020.79 1020.89 1020.92 1020.86 1020.74 1020.55 1020.32 1020.05 1019.78 1019.50 1019.23 1018.95 1018.67 1018.39 1018.10 1017.81 1017.51 1017.21 1016.94 1016.68 1016.46 1016.27 1016.11 1015.97 1015.86 1015.77 1015.71 1015.67 1015.68 1015.72 1015.82 1015.96 1016.14 1016.34 1016.55 1016.74
1020.04 1020.17 1020.30 1020.44 1020.59 1020.75 1020.90 1021.02 1021.10 1021.13 1021.08 1020.97 1020.81 1020.60 1020.37 1020.13 1019.89 1019.64 1019.39 1019.12 1018.84 1018.55 1018.25 1017.95 1017.65 1017.39 1017.16 1016.96 1016.80 1016.66 1016.54 1016.43 1016.32 1016.22 1016.14 1016.08 1016.07 1016.11 1016.20 1016.35 1016.53 1016.72 1016.90
1020.43 1020.56 1020.67 1020.78 1020.89 1021.01 1021.12 1021.21 1021.28 1021.29 1021.26 1021.16 1021.03 1020.86 1020.68 1020.48 1020.27 1020.06 1019.83 1019.58 1019.31 1019.02 1018.71 1018.41 1018.13 1017.88 1017.68 1017.52 1017.39 1017.28 1017.18 1017.08 1016.95 1016.82 1016.69 1016.59 1016.52 1016.50 1016.55 1016.66 1016.80 1016.96 1017.11
1020.77 1020.90 1020.99 1021.07 1021.14 1021.22 1021.29 1021.36 1021.41 1021.43 1021.40 1021.34 1021.24 1021.12 1020.98 1020.82 1020.66 1020.48 1020.28 1020.05 1019.78 1019.50 1019.20 1018.90 1018.63 1018.41 1018.24 1018.11 1018.02 1017.94 1017.87 1017.77 1017.64 1017.49 1017.32 1017.17 1017.05 1016.99 1016.98 1017.04 1017.14 1017.27 1017.38
1021.03 1021.16 1021.24 1021.28 1021.33 1021.37 1021.43 1021.48 1021.53 1021.56 1021.55 1021.52 1021.46 1021.38 1021.29 1021.18 1021.06 1020.91 1020.73 1020.52 1020.27 1019.99 1019.70 1019.42 1019.17 1018.97 1018.82 1018.73 1018.67 1018.63 1018.57 1018.48 1018.35 1018.18 1017.99 1017.81 1017.65 1017.53 1017.48 1017.48 1017.53 1017.60 1017.66
1021.20 1021.33 1021.39 1021.42 1021.45 1021.48 1021.53 1021.59 1021.64 1021.69 1021.71 1021.72 1021.70 1021.66 1021.61 1021.55 1021.46 1021.34 1021.19 1020.99 1020.76 1020.49 1020.22 1019.96 1019.73 1019.56 1019.44 1019.37 1019.34 1019.31 1019.27 1019.19 1019.06 1018.89 1018.68 1018.47 1018.27 1018.11 1018.01 1017.96 1017.94 1017.95 1017.96
1021.29 1021.42 1021.48 1021.51 1021.53 1021.57 1021.62 1021.69 1021.77 1021.84 1021.90 1021.94 1021.96 1021.96 1021.95 1021.91 1021.86 1021.77 1021.64 1021.47 1021.26 1021.02 1020.77 1020.53 1020.32 1020.17 1020.07 1020.02 1020.00 1019.99 1019.95 1019.87 1019.75 1019.57 1019.35 1019.12 1018.90 1018.71 1018.55 1018.44 1018.36 1018.30 1018.24
Thickness
5770 5770 5768 5768 5768 5768 5768 5768 5767 5766 5765 5764 5763 5761 5761 5760 5760 5760 5759 5759 5759 5758 5758 5758 5758 5759 5759 5759 5759 5760 5761 5761 5762 5763 5764 5765 5765 5766 5767 5768 5770 5772 5770
5771 5769 5766 5766 5766 5766 5766 5765 5764 5763 5762 5761 5760 5759 5759 5758 5758 5757 5757 5756 5756 5756 5756 5756 5756 5756 5756 5757 5757 5757 5758 5759 5759 5760 5762 5763 5764 5764 5765 5766 5767 5769 5769
5769 5768 5765 5764 5764 5763 5763 5762 5761 5760 5759 5758 5758 5757 5756 5756 5755 5755 5754 5754 5753 5753 5753 5753 5753 5754 5754 5754 5754 5755 5755 5756 5757 5758 5761 5765 5764 5762 5762 5763 5764 5765 5767
5767 5766 5763 5761 5761 5760 5760 5759 5758 5758 5757 5756 5755 5754 5754 5753 5752 5752 5752 5751 5750 5750 5750 5751 5751 5751 5751 5751 5752 5752 5753 5753 5754 5757 5761 5763 5763 5760 5760 5760 5761 5762 5763
5765 5763 5760 5759 5758 5758 5757 5756 5756 5755 5754 5753 5752 5752 5751 5750 5750 5749 5749 5748 5748 5747 5748 5748 5748 5749 5749 5749 5749 5750 5750 5751 5753 5756 5758 5758 5758 5757 5757 5758 5758 5759 5760
5762 5761 5757 5756 5756 5755 5754 5754 5753 5752 5752 5751 5750 5750 5749 5748 5747 5747 5746 5746 5745 5745 5745 5745 5746 5746 5747 5747 5747 5747 5748 5749 5752 5754 5755 5755 5756 5754 5754 5755 5756 5757 5758
5760 5758 5755 5753 5753 5752 5752 5751 5750 5750 5749 5748 5748 5747 5746 5746 5745 5744 5744 5743 5743 5743 5743 5743 5743 5744 5744 5744 5744 5745 5745 5747 5751 5751 5752 5752 5752 5751 5752 5753 5754 5755 5756
5757 5755 5753 5750 5749 5749 5749 5749 5747 5747 5747 5746 5745 5745 5744 5743 5742 5742 5741 5741 5741 5741 5741 5741 5741 5741 5741 5741 5742 5742 5743 5745 5749 5750 5749 5750 5748 5748 5748 5750 5751 5752 5753
5754 5753 5752 5751 5749 5747 5746 5745 5745 5744 5744 5744 5743 5742 5742 5741 5740 5740 5739 5739 5739 5739 5739 5739 5739 5739 5739 5739 5739 5740 5740 5742 5746 5747 5748 5746 5744 5745 5746 5747 5748 5749 5750
5751 5750 5750 5749 5749 5748 5746 5743 5742 5742 5741 5741 5741 5740 5740 5740 5739 5738 5738 5737 5737 5737 5736 5736 5736 5736 5736 5736 5736 5737 5738 5741 5743 5744 5744 5743 5741 5742 5743 5744 5745 5746 5748
5747 5748 5749 5748 5747 5746 5745 5742 5742 5740 5739 5740 5740 5739 5740 5742 5742 5740 5736 5735 5735 5735 5734 5734 5734 5734 5735 5735 5735 5735 5737 5741 5741 5741 5740 5738 5738 5739 5740 5741 5743 5744 5745
5743 5745 5747 5746 5746 5745 5743 5742 5742 5741 5740 5741 5741 5740 5741 5741 5740 5738 5734 5734 5733 5733 5733 5732 5733 5734 5735 5737 5736 5735 5738 5738 5739 5738 5736 5734 5735 5736 5737 5738 5740 5741 5742
5742 5742 5744 5745 5743 5743 5742 5741 5741 5740 5739 5740 5740 5739 5739 5739 5739 5738 5737 5735 5734 5734 5735 5733 5735 5735 5736 5735 5736 5736 5736 5736 5736 5735 5732 5731 5732 5733 5734 5736 5737 5738 5740
5739 5739 5741 5742 5742 5742 5741 5740 5740 5739 5739 5738 5737 5738 5738 5738 5738 5737 5736 5734 5734 5734 5733 5733 5733 5734 5734 5734 5735 5735 5733 5733 5732 5731 5728 5727 5728 5729 5731 5732 5734 5735 5737
5736 5737 5738 5738 5740 5740 5738 5737 5737 5736 5737 5736 5734 5736 5736 5736 5736 5736 5735 5732 5733 5732 5732 5732 5732 5732 5732 5732 5731 5731 5731 5730 5729 5728 5726 5724 5725 5726 5727 5729 5730 5732 5734
5735 5735 5735 5736 5736 5737 5737 5736 5735 5734 5732 5734 5732 5733 5734 5734 5734 5733 5733 5731 5731 5731 5730 5731 5731 5729 5729 5728 5727 5726 5726 5726 5725 5725 5724 5723 5722 5722 5724 5725 5726 5728 5730
5734 5734 5733 5733 5734 5734 5733 5732 5731 5731 5732 5731 5730 5732 5732 5731 5732 5732 5731 5731 5730 5729 5729 5728 5728 5728 5726 5725 5724 5723 5723 5723 5722 5722 5721 5721 5721 5720 5720 5721 5722 5724 5726
5732 5732 5730 5730 5730 5730 5730 5729 5729 5729 5728 5728 5728 5728 5729 5729 5729 5728 5729 5729 5728 5727 5727 5726 5726 5725 5724 5723 5722 5721 5720 5718 5719 5719 5719 5719 5719 5719 5717 5717 5718 5719 5721
5730 5730 5728 5728 5727 5726 5726 5725 5726 5726 5725 5725 5725 5725 5726 5726 5727 5727 5725 5726 5726 5725 5725 5725 5724 5723 5721 5719 5718 5716 5716 5715 5715 5715 5716 5716 5716 5716 5716 5714 5714 5715 5717
5729 5728 5727 5725 5725 5724 5723 5724 5722 5723 5723 5722 5721 5721 5722 5723 5723 5724 5723 5723 5723 5723 5722 5722 5720 5719 5718 5717 5717 5715 5714 5713 5712 5711 5712 5712 5712 5713 5713 5713 5713 5712 5712
5726 5725 5724 5723 5723 5722 5722 5721 5720 5719 5720 5719 5718 5718 5718 5720 5720 5720 5721 5720 5719 5719 5718 5719 5718 5716 5716 5716 5714 5712 5711 5712 5710 5708 5709 5709 5709 5709 5709 5709 5709 5710 5710
5724 5723 5722 5722 5721 5720 5719 5720 5718 5717 5717 5716 5715 5715 5715 5716 5717 5718 5718 5718 5716 5715 5715 5715 5714 5714 5713 5713 5713 5710 5706 5705 5705 5707 5706 5705 5706 5706 5706 5706 5706 5706 5706
5721 5721 5721 5720 5719 5718 5717 5717 5715 5714 5714 5714 5713 5712 5712 5712 5713 5714 5714 5715 5714 5714 5712 5711 5711 5710 5709 5711 5711 5709 5704 5701 5702 5703 5703 5703 5702 5701 5702 5701 5701 5702 5702
5721 5720 5720 5719 5719 5717 5716 5716 5715 5712 5711 5711 5711 5710 5710 5709 5710 5710 5710 5711 5711 5711 5710 5710 5709 5708 5706 5706 5706 5706 5706 5703 5701 5698 5700 5700 5699 5698 5698 5697 5697 5697 5697
5721 5719 5719 5718 5717 5716 5715 5713 5712 5712 5711 5710 5709 5708 5709 5707 5707 5707 5707 5708 5708 5707 5706 5705 5705 5705 5705 5703 5703 5702 5701 5700 5703 5698 5695 5694 5696 5695 5693 5692 5692 5691 5691
5720 5717 5716 5715 5714 5713 5713 5713 5712 5710 5708 5707 5706 5706 5706 5706 5705 5704 5704 5705 5704 5704 5703 5702 5702 5701 5701 5699 5700 5699 5697 5696 5696 5695 5693 5691 5690 5690 5690 5689 5688 5687 5687